Tracking 25648 objects as of 16-May-2022
HD Live streaming from Space Station
objects crossing your sky now

CZ-3A DEB

Track CZ-3A DEB now!


NORAD ID: 35551
Int'l Code: 2007-003K
Perigee: 604.7 km
Apogee: 37,330.1 km
Inclination: 25.3 °
Period: 669.0 minutes
Semi major axis: 25338 km
RCS: 0.2188 m2 (medium)
Launch date: February 2, 2007
Source: People's Republic of China (PRC)
Launch site: Xichang Space Center, China (XSC)

Note: This is SATELLITE DEBRIS
aabbcc
Your satellite tracking list
Your tracking list is empty




NASA's NSSDC Master Catalog

Two Line Element Set (TLE):
1 35551U 07003K   22136.11571886 -.00000028  00000-0  17112-2 0  9995
2 35551  25.3488 358.6114 7246997  26.8911 357.1424  2.15245573112161
Source of the keplerian elements: AFSPC